�N����,����,�~����,�C��,���x,�C��,����,���ϕ���,�ő�u�ԕ���,�ő厞����,���˗�,�I�_���x,�n�����x,�ő啗���N��,DTYPE
"18/02/16","00:10",0.0,1.6,88.4,1011.4,287.6,0.8,2.1,268.6,0.00,-0.1,4.7,"00:07:28",1
"18/02/16","00:20",0.0,2.1,89.2,1011.2,323.9,2.7,4.8,319.2,0.00,0.6,4.5,"00:18:00",1
"18/02/16","00:30",0.0,2.3,87.3,1011.2,322.1,3.2,5.2,322.2,0.00,0.4,4.4,"00:29:04",1
"18/02/16","00:40",0.0,2.1,86.6,1010.7,319.4,3.2,4.4,325.8,0.00,0.1,4.5,"00:36:00",1
"18/02/16","00:50",0.0,2.0,86.8,1011.2,311.0,3.1,4.4,325.7,0.00,0.1,4.4,"00:40:16",1
"18/02/16","01:00",0.0,1.8,87.2,1011.2,316.5,3.0,4.3,326.6,0.00,-0.1,4.4,"00:51:44",1
"18/02/16","01:10",0.0,1.9,87.8,1010.9,317.2,3.2,5.0,328.4,0.00,0.1,4.4,"01:02:56",1
"18/02/16","01:20",0.0,1.8,87.4,1011.2,318.3,2.7,4.3,325.4,0.00,0.0,4.3,"01:12:40",1
"18/02/16","01:30",0.0,1.7,88.4,1010.7,321.8,2.2,3.6,322.8,0.00,0.0,4.3,"01:21:04",1
"18/02/16","01:40",0.0,1.1,87.9,1011.2,276.6,1.1,2.8,322.6,0.00,-0.6,4.5,"01:30:08",1
"18/02/16","01:50",0.0,0.9,90.0,1010.7,300.8,0.7,1.7,319.4,0.00,-0.5,4.4,"01:46:48",1
"18/02/16","02:00",0.0,0.8,90.0,1010.9,306.6,1.2,2.0,304.8,0.00,-0.6,4.2,"01:56:56",1
"18/02/16","02:10",0.0,0.8,91.2,1010.7,317.7,1.8,2.4,321.5,0.00,-0.4,4.2,"02:02:32",1
"18/02/16","02:20",0.0,1.0,91.1,1010.9,309.2,1.8,3.2,325.3,0.00,-0.2,4.2,"02:12:32",1
"18/02/16","02:30",0.0,1.2,91.8,1010.7,310.5,1.1,2.4,318.3,0.00,0.1,4.1,"02:29:52",1
"18/02/16","02:40",0.0,1.1,91.3,1010.4,293.9,1.1,3.1,315.1,0.00,-0.1,4.2,"02:32:24",1
"18/02/16","02:50",0.0,1.3,91.5,1010.9,330.0,0.7,2.1,312.5,0.00,0.1,4.2,"02:48:40",1
"18/02/16","03:00",0.0,1.5,90.7,1010.0,332.7,1.6,2.9,342.4,0.00,0.2,4.2,"02:56:32",1
"18/02/16","03:10",0.0,1.3,89.7,1010.4,308.2,2.0,3.3,317.6,0.00,-0.2,4.1,"03:01:28",1
"18/02/16","03:20",0.0,1.1,90.3,1010.4,316.6,1.6,2.4,311.8,0.00,-0.3,4.0,"03:17:12",1
"18/02/16","03:30",0.0,1.1,91.2,1010.0,292.0,1.3,2.7,307.4,0.00,-0.1,4.0,"03:29:28",1
"18/02/16","03:40",0.0,0.9,90.4,1010.2,303.4,0.8,2.0,319.3,0.00,-0.5,3.9,"03:39:52",1
"18/02/16","03:50",0.0,0.8,91.0,1010.2,328.6,1.5,2.2,343.9,0.00,-0.5,3.9,"03:48:00",1
"18/02/16","04:00",0.0,0.6,90.8,1010.2,314.2,1.7,2.8,331.6,0.00,-0.7,4.0,"03:51:20",1
"18/02/16","04:10",0.0,0.5,91.8,1010.0,321.3,2.0,2.9,338.8,0.00,-0.6,3.8,"04:05:52",1
"18/02/16","04:20",0.0,0.5,92.0,1010.0,326.2,2.1,3.3,335.3,0.00,-0.6,3.7,"04:19:12",1
"18/02/16","04:30",0.0,0.4,91.9,1010.0,327.1,2.3,3.5,334.1,0.00,-0.7,3.6,"04:25:20",1
"18/02/16","04:40",0.0,0.1,92.2,1010.2,313.2,1.5,2.2,320.8,0.00,-1.0,3.8,"04:35:04",1
"18/02/16","04:50",0.0,-0.1,92.8,1009.7,325.2,2.0,3.3,339.5,0.00,-1.1,3.8,"04:45:54",1
"18/02/16","05:00",0.0,-0.3,92.9,1009.5,325.9,1.3,2.5,330.1,0.00,-1.3,3.7,"04:50:40",1
"18/02/16","05:10",0.0,-0.7,93.8,1009.7,303.2,0.3,1.0,311.1,0.00,-1.5,3.6,"05:08:56",1
"18/02/16","05:20",0.0,-1.2,93.6,1009.7,2.6,0.7,1.6,321.6,0.00,-2.1,3.6,"05:10:16",1
"18/02/16","05:30",0.0,-1.6,94.6,1009.7,275.1,0.3,2.2,311.8,0.00,-2.3,3.6,"05:29:52",1
"18/02/16","05:40",0.0,-1.5,95.7,1009.5,323.6,1.6,2.4,334.4,0.00,-2.1,3.3,"05:31:52",1
"18/02/16","05:50",0.0,-1.4,96.5,1009.7,328.4,1.0,2.0,345.3,0.00,-1.8,3.5,"05:41:52",1
"18/02/16","06:00",0.0,-1.4,96.2,1009.7,332.7,1.1,2.0,333.0,0.00,-1.9,3.5,"05:57:04",1
"18/02/16","06:10",0.0,-1.6,96.9,1009.3,314.8,1.6,2.0,319.9,0.00,-2.0,3.4,"06:03:44",1
"18/02/16","06:20",0.0,-1.4,97.5,1009.7,341.1,1.3,2.4,334.9,0.00,-1.7,3.2,"06:12:56",1
"18/02/16","06:30",0.0,-1.4,97.7,1009.7,328.4,1.3,1.8,343.2,0.00,-1.7,3.2,"06:27:28",1
"18/02/16","06:40",0.0,-1.7,97.4,1009.5,312.5,1.6,2.2,324.6,0.00,-2.0,3.4,"06:38:40",1
"18/02/16","06:50",0.0,-1.3,98.2,1009.5,322.6,1.3,2.4,326.8,0.00,-1.5,3.2,"06:42:00",1
"18/02/16","07:00",0.0,-1.1,97.3,1010.0,289.7,1.0,1.6,283.2,0.00,-1.4,3.3,"06:55:12",1
"18/02/16","07:10",0.0,-1.0,98.4,1010.0,323.3,0.8,1.4,276.1,0.00,-1.2,3.2,"07:00:32",1
"18/02/16","07:20",0.0,-0.8,96.7,1010.2,19.4,0.6,1.4,352.1,0.00,-1.2,3.2,"07:19:04",1
"18/02/16","07:30",0.0,-1.1,98.3,1010.2,336.2,1.2,2.2,336.3,0.00,-1.3,3.3,"07:21:00",1
"18/02/16","07:40",0.0,-0.4,97.8,1010.2,305.4,1.3,2.1,328.6,0.01,-0.7,3.3,"07:32:54",1
"18/02/16","07:50",0.0,-0.2,98.3,1010.2,275.8,1.3,2.1,268.0,0.01,-0.4,3.3,"07:49:28",1
"18/02/16","08:00",0.0,0.6,97.0,1010.2,289.7,1.6,2.5,322.4,0.02,0.2,3.1,"07:55:36",1
"18/02/16","08:10",0.0,1.3,95.5,1010.2,261.9,1.5,2.1,249.7,0.04,0.7,3.5,"08:04:56",1
"18/02/16","08:20",0.0,2.1,91.8,1010.7,290.6,1.3,2.1,307.3,0.05,0.9,3.3,"08:11:52",1
"18/02/16","08:30",0.0,2.6,89.7,1011.2,262.7,0.7,1.3,299.7,0.10,1.1,3.4,"08:21:04",1
"18/02/16","08:40",0.0,2.8,87.1,1010.9,305.8,1.1,1.7,298.9,0.12,0.9,3.6,"08:38:02",1
"18/02/16","08:50",0.0,3.4,86.2,1011.4,255.5,1.0,1.6,307.6,0.15,1.4,3.8,"08:40:08",1
"18/02/16","09:00",0.0,3.7,84.7,1011.2,261.9,0.7,1.7,222.2,0.17,1.4,4.0,"08:55:18",1
"18/02/16","09:10",0.0,4.2,82.5,1011.9,261.9,0.7,1.3,254.1,0.19,1.5,4.0,"09:01:28",1
"18/02/16","09:20",0.0,4.6,81.0,1012.3,292.7,0.8,2.0,313.5,0.22,1.7,4.2,"09:16:20",1
"18/02/16","09:30",0.0,4.8,78.4,1012.8,253.0,0.8,1.3,218.6,0.23,1.4,4.3,"09:25:12",1
"18/02/16","09:40",0.0,4.9,77.8,1012.3,215.2,1.1,3.4,156.6,0.26,1.4,4.7,"09:37:04",1
"18/02/16","09:50",0.0,5.7,78.4,1012.3,233.9,1.1,2.4,195.1,0.30,2.3,4.6,"09:40:24",1
"18/02/16","10:00",0.0,5.3,77.0,1012.1,193.0,1.1,2.8,223.1,0.29,1.6,4.7,"09:58:40",1
"18/02/16","10:10",0.0,6.0,73.6,1012.3,162.9,1.2,3.4,116.2,0.34,1.7,5.2,"10:09:20",1
"18/02/16","10:20",0.0,5.7,73.7,1011.6,183.0,1.1,2.8,144.6,0.34,1.4,5.3,"10:14:00",1
"18/02/16","10:30",0.0,6.4,71.5,1011.6,223.3,1.0,2.9,233.9,0.36,1.7,5.3,"10:28:24",1
"18/02/16","10:40",0.0,6.9,71.1,1011.4,214.3,1.3,3.2,132.3,0.35,2.1,5.8,"10:39:20",1
"18/02/16","10:50",0.0,6.8,66.2,1011.2,135.6,1.2,3.2,118.3,0.36,1.0,5.8,"10:49:28",1
"18/02/16","11:00",0.0,7.3,65.1,1011.2,216.4,1.5,3.9,235.0,0.36,1.2,6.1,"10:55:20",1
"18/02/16","11:10",0.0,7.7,65.3,1011.2,195.8,1.6,3.2,166.8,0.42,1.6,6.2,"11:02:56",1
"18/02/16","11:20",0.0,7.7,61.9,1010.9,180.9,2.0,3.6,218.9,0.37,0.9,6.4,"11:10:08",1
"18/02/16","11:30",0.0,8.5,62.4,1010.9,194.0,1.2,2.8,176.2,0.40,1.8,6.9,"11:20:08",1
"18/02/16","11:40",0.0,8.7,58.4,1010.4,195.7,1.6,2.9,215.4,0.49,1.0,7.0,"11:31:12",1
"18/02/16","11:50",0.0,9.1,59.3,1010.4,229.4,1.5,3.3,195.2,0.35,1.6,6.9,"11:48:56",1
"18/02/16","12:00",0.0,8.5,58.7,1010.4,95.1,1.3,3.9,48.1,0.29,0.9,7.3,"11:57:04",1
"18/02/16","12:10",0.0,8.6,56.9,1010.0,146.6,1.2,2.9,43.8,0.31,0.6,7.2,"12:04:40",1
"18/02/16","12:20",0.0,8.2,56.5,1009.7,61.9,0.7,2.1,116.5,0.27,0.1,7.3,"12:16:24",1
"18/02/16","12:30",0.0,8.5,55.5,1009.5,176.4,0.8,2.7,107.0,0.26,0.1,7.8,"12:25:36",1
"18/02/16","12:40",0.0,8.6,54.3,1009.0,293.1,0.7,1.4,113.0,0.28,-0.1,7.6,"12:39:36",1
"18/02/16","12:50",0.0,9.1,53.3,1009.0,23.9,1.0,2.4,43.3,0.30,0.1,7.9,"12:45:28",1
"18/02/16","13:00",0.0,9.6,53.4,1008.8,289.3,1.1,2.5,325.4,0.36,0.6,7.9,"12:52:48",1
"18/02/16","13:10",0.0,9.6,52.4,1008.3,231.6,1.0,1.8,216.2,0.29,0.4,8.0,"13:07:28",1
"18/02/16","13:20",0.0,10.0,52.4,1008.3,248.9,0.7,2.9,205.0,0.27,0.8,8.2,"13:10:02",1
"18/02/16","13:30",0.0,9.7,50.8,1007.8,222.0,1.5,2.7,236.2,0.28,0.0,8.3,"13:23:44",1
"18/02/16","13:40",0.0,10.1,50.1,1007.8,270.2,1.5,2.9,327.7,0.26,0.2,8.3,"13:39:44",1
"18/02/16","13:50",0.0,10.5,46.8,1007.6,253.5,1.1,2.5,291.5,0.33,-0.3,8.5,"13:49:20",1
"18/02/16","14:00",0.0,10.4,49.9,1007.8,247.9,1.2,3.3,230.1,0.28,0.4,8.4,"13:56:56",1
"18/02/16","14:10",0.0,11.4,46.4,1007.4,213.2,1.5,2.9,247.6,0.40,0.4,8.6,"14:00:48",1
"18/02/16","14:20",0.0,11.4,47.3,1007.4,196.6,2.0,3.9,193.8,0.46,0.6,8.9,"14:17:28",1
"18/02/16","14:30",0.0,11.8,46.3,1006.9,204.5,1.8,3.9,212.6,0.38,0.7,9.1,"14:20:24",1
"18/02/16","14:40",0.0,11.5,45.1,1006.9,210.4,2.0,4.2,197.5,0.37,0.1,8.9,"14:36:24",1
"18/02/16","14:50",0.0,12.1,44.0,1006.9,196.7,1.8,3.3,197.6,0.39,0.3,9.2,"14:45:12",1
"18/02/16","15:00",0.0,11.3,45.0,1006.4,150.2,1.7,3.2,155.6,0.31,-0.2,9.2,"14:54:56",1
"18/02/16","15:10",0.0,11.7,44.4,1006.4,174.0,1.6,3.1,210.9,0.28,0.0,9.3,"15:06:16",1
"18/02/16","15:20",0.0,11.3,45.7,1006.7,195.9,1.5,3.1,221.0,0.17,0.1,9.3,"15:13:28",1
"18/02/16","15:30",0.0,11.0,46.2,1006.2,219.6,2.2,4.2,202.4,0.15,-0.1,9.2,"15:24:32",1
"18/02/16","15:40",0.0,11.3,45.2,1006.4,234.3,1.6,5.4,233.4,0.15,-0.1,9.2,"15:31:28",1
"18/02/16","15:50",0.0,11.0,45.9,1006.4,216.2,1.8,4.5,237.1,0.11,-0.2,9.2,"15:47:38",1
"18/02/16","16:00",0.0,10.9,44.9,1006.2,220.8,1.8,3.5,234.4,0.09,-0.5,9.1,"15:50:24",1
"18/02/16","16:10",0.0,10.8,45.7,1006.2,185.4,1.2,2.4,135.4,0.07,-0.4,9.2,"16:05:36",1
"18/02/16","16:20",0.0,10.9,47.6,1006.2,210.4,0.8,2.2,149.7,0.05,0.3,8.9,"16:10:38",1
"18/02/16","16:30",0.0,10.7,46.2,1006.2,199.7,1.0,2.8,207.4,0.03,-0.3,9.0,"16:23:58",1
"18/02/16","16:40",0.0,10.7,48.3,1006.0,228.3,1.0,2.5,179.9,0.03,0.3,9.0,"16:37:52",1
"18/02/16","16:50",0.0,10.5,47.2,1006.4,229.1,1.6,4.0,240.0,0.02,-0.2,8.7,"16:45:52",1
"18/02/16","17:00",0.0,10.3,46.4,1006.4,227.7,1.7,3.4,217.8,0.01,-0.6,9.0,"16:51:54",1
"18/02/16","17:10",0.0,10.2,47.4,1006.2,226.5,1.5,3.1,187.3,0.00,-0.4,8.6,"17:02:38",1
"18/02/16","17:20",0.0,10.0,47.3,1005.7,230.1,1.0,1.9,213.8,0.00,-0.7,8.5,"17:11:50",1
"18/02/16","17:30",0.0,9.8,47.7,1005.7,226.6,1.3,2.6,245.2,0.00,-0.7,8.5,"17:27:02",1
"18/02/16","17:40",0.0,9.6,48.0,1006.2,237.8,0.8,2.1,238.0,0.00,-0.8,8.4,"17:31:12",1
"18/02/16","17:50",0.0,9.5,49.2,1006.4,243.1,0.3,1.1,227.0,0.00,-0.6,8.1,"17:41:48",1
"18/02/16","18:00",0.0,9.3,50.8,1006.0,180.2,0.5,1.7,125.1,0.00,-0.3,8.3,"17:59:36",1
"18/02/16","18:10",0.0,9.1,51.9,1006.0,200.8,0.6,1.6,117.3,0.00,-0.2,8.2,"18:08:56",1
"18/02/16","18:20",0.0,8.9,54.6,1006.0,62.8,0.6,1.2,99.0,0.00,0.3,8.1,"18:10:16",1
"18/02/16","18:30",0.0,8.6,55.7,1006.2,123.5,0.3,1.2,131.3,0.00,0.3,8.0,"18:26:40",1
"18/02/16","18:40",0.0,8.3,58.1,1006.0,112.9,0.2,0.8,316.5,0.00,0.6,8.0,"18:38:16",1
"18/02/16","18:50",0.0,8.1,58.8,1006.2,303.3,1.0,1.8,313.2,0.00,0.6,7.7,"18:44:16",1
"18/02/16","19:00",0.0,7.8,62.7,1006.2,323.5,1.1,2.1,333.3,0.00,1.2,7.7,"18:57:04",1
"18/02/16","19:10",0.0,7.4,65.5,1006.0,312.2,1.8,2.7,314.9,0.00,1.4,7.7,"19:08:40",1
"18/02/16","19:20",0.0,7.3,66.0,1005.5,314.2,1.7,2.9,323.7,0.00,1.4,7.7,"19:19:04",1
"18/02/16","19:30",0.0,7.0,67.5,1005.7,307.2,2.1,2.8,330.5,0.00,1.4,7.7,"19:20:24",1
"18/02/16","19:40",0.0,7.0,67.3,1005.5,313.4,2.3,3.4,319.9,0.00,1.4,7.8,"19:32:48",1
"18/02/16","19:50",0.0,6.9,67.6,1005.5,287.6,1.8,2.7,316.8,0.00,1.4,7.3,"19:48:40",1
"18/02/16","20:00",0.0,6.9,67.8,1005.2,308.5,2.2,3.1,316.2,0.00,1.4,7.5,"19:55:12",1
"18/02/16","20:10",0.0,6.7,68.2,1005.5,295.0,2.0,3.1,319.9,0.00,1.3,7.2,"20:00:16",1
"18/02/16","20:20",0.0,6.6,68.6,1005.5,292.4,1.8,2.8,316.7,0.00,1.3,7.2,"20:12:24",1
"18/02/16","20:30",0.0,6.6,68.3,1005.7,304.6,2.5,2.9,311.6,0.00,1.2,7.0,"20:23:20",1
"18/02/16","20:40",0.0,6.6,68.7,1005.7,314.1,3.1,4.1,318.8,0.00,1.3,7.2,"20:37:28",1
"18/02/16","20:50",0.0,6.5,68.6,1005.7,303.7,2.3,3.5,303.8,0.00,1.2,7.1,"20:42:08",1
"18/02/16","21:00",0.0,6.3,69.2,1005.5,298.3,2.2,3.3,320.0,0.00,1.1,7.1,"20:54:56",1
"18/02/16","21:10",0.0,6.2,70.0,1005.2,300.9,2.5,3.4,310.0,0.00,1.2,7.0,"21:05:44",1
"18/02/16","21:20",0.0,6.0,70.4,1005.5,301.7,2.2,3.1,316.5,0.00,1.1,6.9,"21:18:24",1
"18/02/16","21:30",0.0,5.8,71.3,1005.2,292.2,2.0,2.9,313.5,0.00,1.1,6.9,"21:24:40",1
"18/02/16","21:40",0.0,5.6,72.2,1005.5,304.5,1.8,2.4,311.7,0.00,1.0,6.9,"21:33:36",1
"18/02/16","21:50",0.0,5.4,73.1,1004.8,292.7,1.8,2.5,309.7,0.00,1.0,6.7,"21:40:48",1
"18/02/16","22:00",0.0,5.3,73.6,1004.5,295.5,2.0,2.4,314.1,0.00,1.0,6.8,"21:53:04",1
"18/02/16","22:10",0.0,5.2,74.2,1004.8,286.7,1.8,2.1,273.2,0.00,1.0,6.7,"22:03:20",1
"18/02/16","22:20",0.0,5.2,74.5,1004.8,288.9,1.8,2.1,290.5,0.00,1.1,6.9,"22:18:48",1
"18/02/16","22:30",0.0,5.3,74.2,1005.0,292.7,2.0,3.5,321.7,0.00,1.1,6.4,"22:29:28",1
"18/02/16","22:40",0.0,5.4,73.2,1005.0,310.9,2.7,4.0,309.2,0.00,1.0,6.4,"22:36:00",1
"18/02/16","22:50",0.0,5.3,72.8,1004.5,313.1,2.3,3.2,323.3,0.00,0.9,6.5,"22:41:12",1
"18/02/16","23:00",0.0,5.1,73.6,1004.8,297.4,1.5,2.1,312.7,0.00,0.8,6.5,"22:50:16",1
"18/02/16","23:10",0.0,4.8,75.1,1004.8,282.2,1.2,1.7,300.9,0.00,0.8,6.4,"23:09:54",1
"18/02/16","23:20",0.0,4.6,75.1,1004.5,312.7,2.0,3.1,327.6,0.00,0.6,6.3,"23:12:08",1
"18/02/16","23:30",0.0,4.1,76.8,1004.5,288.5,1.7,2.0,298.3,0.00,0.4,6.3,"23:20:40",1
"18/02/16","23:40",0.0,3.9,78.1,1004.3,283.8,1.1,2.0,315.2,0.00,0.5,6.4,"23:30:08",1
"18/02/16","23:50",0.0,3.8,77.6,1004.3,321.7,1.3,1.9,322.3,0.00,0.3,6.2,"23:40:40",1
"18/02/16","24:00",0.0,3.5,78.1,1004.1,302.7,1.3,2.5,323.1,0.00,0.1,6.1,"23:53:36",1
